Regional Weather Roundup
Issued by NWS Jackson, KY

Home | Current Version | Previous Version | Graphics & Text | Print | Product List | Glossary On
Versions: 1 2 3 4 5 6 7 8 9 10 11 12 13 14 15 16 17 18 19 20 21 22 23 24 25 26 27 28 29 30 31 32 33 34 35 36 37 38 39 40 41 42 43 44 45 46 47 48 49 50
000
ASUS43 KJKL 061810
RWRJKL

EAST KENTUCKY HOURLY WEATHER ROUNDUP
NATIONAL WEATHER SERVICE JACKSON KY
100 PM EST SAT FEB 06 2016

NOTE: "FAIR" INDICATES FEW OR NO CLOUDS BELOW 12,000 FEET WITH
NO SIGNIFICANT WEATHER AND/OR OBSTRUCTIONS TO VISIBILITY.

* THESE REPORTS ARE NOT UNDER NWS QUALITY CONTROL AND MAY NOT
  REPORT WEATHER SUCH AS PRECIPITATION AND FOG.

KYZ079-080-083-085-087-088-110-112-115-119-120-061900
...EASTERN KENTUCKY...

CITY           SKY/WX    TMP DP  RH WIND       PRES   REMARKS
JACKSON        SUNNY     48  21  34 MISG      30.30F
6HR MIN TEMP:  28; 6HR MAX TEMP:  49;

LONDON         SUNNY     47  18  31 SW14      30.33F
6HR MIN TEMP:  24; 6HR MAX TEMP:  47;

SOMERSET*      MOSUNNY   45  21  39 SW6       30.35F
MONTICELLO*    MOSUNNY   48  20  32 W12       30.36F
6HR MIN TEMP:  22; 6HR MAX TEMP:  49;

WILLIAMSBURG*  CLEAR     46  18  31 CALM      30.33F
MIDDLESBORO*   MOSUNNY   42  20  40 S6        30.36F
6HR MIN TEMP:  23; 6HR MAX TEMP:  43;

HARLAN APT*      N/A     45  16  31 S5        30.32F
HAZARD APT*    CLEAR    N/A N/A N/A CALM      30.31F
BLACK MTN*       N/A     32  18  55 VRB3        N/A
BIG SANDY*     CLEAR     47  21  34 SW9       30.30F
6HR MIN TEMP:  31; 6HR MAX TEMP:  47;

MOREHEAD APT*  CLEAR     46  21  36 W7G14     30.33F
$$

KYZ035-036-041-042-044-050-067-078-099-061900
...CENTRAL KENTUCKY...

CITY           SKY/WX    TMP DP  RH WIND       PRES   REMARKS
MT STERLING*   CLOUDY    46  27  46 W12       30.32F
DANVILLE*      SUNNY     46  23  39 W8        30.33F
RICHMOND*      SUNNY     46  21  36 SW10      30.31F
LEXINGTON      MOSUNNY   47  22  37 W6        30.31F
6HR MIN TEMP:  27; 6HR MAX TEMP:  48;

FRANKFORT      SUNNY     46  23  40 VRB3      30.31F
6HR MIN TEMP:  22; 6HR MAX TEMP:  46;

$$

KYZ091>093-OHZ055-061-077-WVZ005-015-034-035-042-061900
...SOUTHERN OHIO/WEST VIRGINIA...

CITY           SKY/WX    TMP DP  RH WIND       PRES   REMARKS
COVINGTON      PTSUNNY   43  22  43 W7        30.30F
COLUMBUS       MOSUNNY   39  12  33 W7        30.29F WCI  34
DAYTON         MOSUNNY   38  17  42 SW8       30.28F WCI  32
WILMINGTON     SUNNY     40  19  43 W8        30.29F WCI  34
HUNTINGTON       N/A     48  21  34 W10       30.30F
CHARLESTON       N/A     46  19  34 SW13      30.29F
PINEVILLE*       N/A     44  11  25 MISG      30.34F
BECKLEY          N/A     40  14  34 W10G20    30.26F WCI  33
$$

VAZ002-007-008-TNZ017-027-036-066-071-061900
...SOUTHWEST VIRGINIA/EAST TENNESSEE...

CITY           SKY/WX    TMP DP  RH WIND       PRES   REMARKS
BRISTOL        PTSUNNY   44  16  32 VRB5      30.34F
KNOXVILLE      CLOUDY    46  18  32 CALM      30.35F
OAK RIDGE      SUNNY     46  19  34 CALM      30.37F
CROSSVILLE     MOSUNNY   44  16  32 NW8       30.32F
NASHVILLE      PTSUNNY   52  16  24 CALM      30.36F
$$

...KEY TO REMARKS...
VSB - VISIBILITY IN MILES
WCI - WIND CHILL INDEX
HX  - HEAT INDEX

$$



USA.gov is the U.S. government's official web portal to all federal, state and local government web resources and services.